This is the latest recevied weather packets stored in our database for station/object NC4J. If no packets are shown the sender has not sent any weather packets the latest 10 day(s).
| Time | Temp. | Humidity | Pressure | Rain* | Wind** | Luminosity | Snow |
|---|---|---|---|---|---|---|---|
| 1777080383 | 14.44° C | 74% | 1012.9 hPa | 0 mm | - | 0 W/m² | - |
| 1777080077 | 15° C | 73% | 1012.6 hPa | 0 mm | - | 0 W/m² | - |
| 1777079776 | 15° C | 72% | 1012.9 hPa | 0 mm | - | 0 W/m² | - |
| 1777079473 | 15° C | 71% | 1012.6 hPa | 0 mm | - | 0 W/m² | - |
| 1777079168 | 15° C | 72% | 1012.5 hPa | 0 mm | - | 0 W/m² | - |
| 1777078865 | 15.56° C | 70% | 1012.8 hPa | 0 mm | - | 0 W/m² | - |
| 1777078561 | 15.56° C | 70% | 1012.6 hPa | 0 mm | - | 0 W/m² | - |
| 1777078257 | 15.56° C | 69% | 1012.4 hPa | 0 mm | - | 0 W/m² | - |
| 1777077956 | 15.56° C | 70% | 1012.5 hPa | 0 mm | - | 0 W/m² | - |
| 1777077653 | 16.11° C | 69% | 1012.4 hPa | 0 mm | - | 0 W/m² | - |
| 1777077349 | 16.11° C | 68% | 1012.5 hPa | 0 mm | - | 0 W/m² | - |
| 1777077048 | 16.67° C | 67% | 1012.4 hPa | 0 mm | - | 0 W/m² | - |
| 1777076744 | 16.67° C | 68% | 1012.4 hPa | 0 mm | - | 0 W/m² | - |
| 1777076441 | 17.22° C | 67% | 1012.3 hPa | 0 mm | - | 1 W/m² | - |
| 1777076135 | 17.22° C | 64% | 1012.3 hPa | 0 mm | - | 1 W/m² | - |
| 1777075832 | 17.78° C | 66% | 1012.3 hPa | 0 mm | - | 2 W/m² | - |
| 1777075527 | 17.78° C | 61% | 1012.3 hPa | 0 mm | - | 2 W/m² | - |
| 1777075224 | 18.33° C | 62% | 1012.2 hPa | 0 mm | - | 3 W/m² | - |
| 1777074920 | 18.89° C | 62% | 1012.4 hPa | 0 mm | - | 4 W/m² | - |
| 1777074616 | 18.89° C | 62% | 1012 hPa | 0 mm | - | 6 W/m² | - |
| 1777074310 | 19.44° C | 61% | 1012.1 hPa | 0 mm | - | 8 W/m² | - |
| 1777074009 | 19.44° C | 59% | 1012.2 hPa | 0 mm | - | 8 W/m² | - |
| 1777073703 | 20° C | 56% | 1012.2 hPa | 0 mm | - | 11 W/m² | - |
| 1777073400 | 20° C | 54% | 1011.9 hPa | 0 mm | - | 14 W/m² | - |
| 1777073095 | 20.56° C | 53% | 1012.1 hPa | 0 mm | - | 18 W/m² | - |
* Rain latest hour (hover to see other rain measurements)
** Current wind speed in m/s (hover to see current wind gust speed)